Year,Month,Day,Hour,Minute,Value (Times are PST for temperature in C)
2008,08,29,00,00,17.60
2008,08,29,00,01,17.60
2008,08,29,00,02,17.60
2008,08,29,00,03,17.60
2008,08,29,00,04,17.60
2008,08,29,00,05,17.60
2008,08,29,00,06,17.60
2008,08,29,00,07,17.60
2008,08,29,00,08,17.60
2008,08,29,00,09,17.60
2008,08,29,00,10,17.60
2008,08,29,00,11,17.60
2008,08,29,00,12,17.60
2008,08,29,00,13,17.60
2008,08,29,00,14,17.60
2008,08,29,00,15,17.60
2008,08,29,00,16,17.60
2008,08,29,00,17,17.60
2008,08,29,00,18,17.60
2008,08,29,00,19,17.60
2008,08,29,00,20,17.50
2008,08,29,00,21,17.50
2008,08,29,00,22,17.50
2008,08,29,00,23,17.50
2008,08,29,00,24,17.40
2008,08,29,00,25,17.40
2008,08,29,00,26,17.40
2008,08,29,00,27,17.40
2008,08,29,00,28,17.40
2008,08,29,00,29,17.30
2008,08,29,00,30,17.30
2008,08,29,00,31,17.30
2008,08,29,00,32,17.30
2008,08,29,00,33,17.30
2008,08,29,00,34,17.20
2008,08,29,00,35,17.20
2008,08,29,00,36,17.20
2008,08,29,00,37,17.20
2008,08,29,00,38,17.20
2008,08,29,00,39,17.30
2008,08,29,00,40,17.30
2008,08,29,00,41,17.30
2008,08,29,00,42,17.30
2008,08,29,00,43,17.30
2008,08,29,00,44,17.30
2008,08,29,00,45,17.30
2008,08,29,00,46,17.30
2008,08,29,00,47,17.30
2008,08,29,00,48,17.30
2008,08,29,00,49,17.30
2008,08,29,00,50,17.40
2008,08,29,00,51,17.40
2008,08,29,00,52,17.40
2008,08,29,00,53,17.40
2008,08,29,00,54,17.40
2008,08,29,00,55,17.40
2008,08,29,00,56,17.40
2008,08,29,00,57,17.40
2008,08,29,00,58,17.40
2008,08,29,00,59,17.40
2008,08,29,01,00,17.40
2008,08,29,01,01,17.50
2008,08,29,01,02,17.50
2008,08,29,01,03,17.50
2008,08,29,01,04,17.50
2008,08,29,01,05,17.40
2008,08,29,01,06,17.50
2008,08,29,01,07,17.40
2008,08,29,01,08,17.40
2008,08,29,01,09,17.40
2008,08,29,01,10,17.40
2008,08,29,01,11,17.40
2008,08,29,01,12,17.50
2008,08,29,01,13,17.50
2008,08,29,01,14,17.50
2008,08,29,01,15,17.50
2008,08,29,01,16,17.50
2008,08,29,01,17,17.50
2008,08,29,01,18,17.50
2008,08,29,01,19,17.50
2008,08,29,01,20,17.50
2008,08,29,01,21,17.50
2008,08,29,01,22,17.50
2008,08,29,01,23,17.50
2008,08,29,01,24,17.50
2008,08,29,01,25,17.50
2008,08,29,01,26,17.50
2008,08,29,01,27,17.50
2008,08,29,01,28,17.50
2008,08,29,01,29,17.50
2008,08,29,01,30,17.60
2008,08,29,01,31,17.60
2008,08,29,01,32,17.60
2008,08,29,01,33,17.60
2008,08,29,01,34,17.60
2008,08,29,01,35,17.60
2008,08,29,01,36,17.60
2008,08,29,01,37,17.60
2008,08,29,01,38,17.60
2008,08,29,01,39,17.60
2008,08,29,01,40,17.60
2008,08,29,01,41,17.60
2008,08,29,01,42,17.60
2008,08,29,01,43,17.60
2008,08,29,01,44,17.60
2008,08,29,01,45,17.60
2008,08,29,01,46,17.60
2008,08,29,01,47,17.60
2008,08,29,01,48,17.60
2008,08,29,01,49,17.60
2008,08,29,01,50,17.60
2008,08,29,01,51,17.60
2008,08,29,01,52,17.70
2008,08,29,01,53,17.70
2008,08,29,01,54,17.70
2008,08,29,01,55,17.70
2008,08,29,01,56,17.70
2008,08,29,01,57,17.70
2008,08,29,01,58,17.70
2008,08,29,01,59,17.60
2008,08,29,02,00,17.60
2008,08,29,02,01,17.60
2008,08,29,02,02,17.60
2008,08,29,02,03,17.60
2008,08,29,02,04,17.60
2008,08,29,02,05,17.50
2008,08,29,02,06,17.50
2008,08,29,02,07,17.50
2008,08,29,02,08,17.50
2008,08,29,02,09,17.50
2008,08,29,02,10,17.50
2008,08,29,02,11,17.50
2008,08,29,02,12,17.50
2008,08,29,02,13,17.50
2008,08,29,02,14,17.50
2008,08,29,02,15,17.50
2008,08,29,02,16,17.50
2008,08,29,02,17,17.50
2008,08,29,02,18,17.50
2008,08,29,02,19,17.50
2008,08,29,02,20,17.60
2008,08,29,02,21,17.60
2008,08,29,02,22,17.60
2008,08,29,02,23,17.60
2008,08,29,02,24,17.60
2008,08,29,02,25,17.60
2008,08,29,02,26,17.60
2008,08,29,02,27,17.60
2008,08,29,02,28,17.60
2008,08,29,02,29,17.60
2008,08,29,02,30,17.60
2008,08,29,02,31,17.60
2008,08,29,02,32,17.60
2008,08,29,02,33,17.60
2008,08,29,02,34,17.60
2008,08,29,02,35,17.60
2008,08,29,02,36,17.60
2008,08,29,02,37,17.60
2008,08,29,02,38,17.60
2008,08,29,02,39,17.60
2008,08,29,02,40,17.50
2008,08,29,02,41,17.50
2008,08,29,02,42,17.50
2008,08,29,02,43,17.50
2008,08,29,02,44,17.50
2008,08,29,02,45,17.50
2008,08,29,02,46,17.40
2008,08,29,02,47,17.40
2008,08,29,02,48,17.40
2008,08,29,02,49,17.40
2008,08,29,02,50,17.40
2008,08,29,02,51,17.40
2008,08,29,02,52,17.40
2008,08,29,02,53,17.40
2008,08,29,02,54,17.40
2008,08,29,02,55,17.30
2008,08,29,02,56,17.30
2008,08,29,02,57,17.30
2008,08,29,02,58,17.30
2008,08,29,02,59,17.30
2008,08,29,03,00,17.30
2008,08,29,03,01,17.30
2008,08,29,03,02,17.20
2008,08,29,03,03,17.20
2008,08,29,03,04,17.20
2008,08,29,03,05,17.20
2008,08,29,03,06,17.20
2008,08,29,03,07,17.10
2008,08,29,03,08,17.10
2008,08,29,03,09,17.10
2008,08,29,03,10,17.10
2008,08,29,03,11,17.00
2008,08,29,03,12,17.00
2008,08,29,03,13,17.00
2008,08,29,03,14,17.00
2008,08,29,03,15,16.90
2008,08,29,03,16,16.90
2008,08,29,03,17,16.90
2008,08,29,03,18,16.90
2008,08,29,03,19,16.90
2008,08,29,03,20,16.90
2008,08,29,03,21,16.90
2008,08,29,03,22,16.90
2008,08,29,03,23,16.90
2008,08,29,03,24,16.90
2008,08,29,03,25,16.90
2008,08,29,03,26,16.90
2008,08,29,03,27,16.90
2008,08,29,03,28,16.90
2008,08,29,03,29,16.90
2008,08,29,03,30,16.80
2008,08,29,03,31,16.80
2008,08,29,03,32,16.80
2008,08,29,03,33,16.80
2008,08,29,03,34,16.80
2008,08,29,03,35,16.80
2008,08,29,03,36,16.70
2008,08,29,03,37,16.70
2008,08,29,03,38,16.70
2008,08,29,03,39,16.70
2008,08,29,03,40,16.70
2008,08,29,03,41,16.60
2008,08,29,03,42,16.60
2008,08,29,03,43,16.60
2008,08,29,03,44,16.50
2008,08,29,03,45,16.50
2008,08,29,03,46,16.40
2008,08,29,03,47,16.40
2008,08,29,03,48,16.40
2008,08,29,03,49,16.30
2008,08,29,03,50,16.20
2008,08,29,03,51,16.10
2008,08,29,03,52,16.10
2008,08,29,03,53,16.00
2008,08,29,03,54,16.00
2008,08,29,03,55,15.90
2008,08,29,03,56,15.80
2008,08,29,03,57,15.80
2008,08,29,03,58,15.70
2008,08,29,03,59,15.70
2008,08,29,04,00,15.70
2008,08,29,04,01,15.60
2008,08,29,04,02,15.50
2008,08,29,04,03,15.50
2008,08,29,04,04,15.40
2008,08,29,04,05,15.30
2008,08,29,04,06,15.30
2008,08,29,04,07,15.20
2008,08,29,04,08,15.20
2008,08,29,04,09,15.10
2008,08,29,04,10,15.00
2008,08,29,04,11,15.00
2008,08,29,04,12,15.00
2008,08,29,04,13,15.00
2008,08,29,04,14,15.00
2008,08,29,04,15,15.00
2008,08,29,04,16,15.00
2008,08,29,04,17,14.90
2008,08,29,04,18,14.80
2008,08,29,04,19,14.80
2008,08,29,04,20,14.80
2008,08,29,04,21,14.70
2008,08,29,04,22,14.70
2008,08,29,04,23,14.70
2008,08,29,04,24,14.60
2008,08,29,04,25,14.60
2008,08,29,04,26,14.60
2008,08,29,04,27,14.50
2008,08,29,04,28,14.50
2008,08,29,04,29,14.50
2008,08,29,04,30,14.40
2008,08,29,04,31,14.40
2008,08,29,04,32,14.40
2008,08,29,04,33,14.40
2008,08,29,04,34,14.40
2008,08,29,04,35,14.40
2008,08,29,04,36,14.30
2008,08,29,04,37,14.30
2008,08,29,04,38,14.30
2008,08,29,04,39,14.30
2008,08,29,04,40,14.30
2008,08,29,04,41,14.30
2008,08,29,04,42,14.30
2008,08,29,04,43,14.30
2008,08,29,04,44,14.20
2008,08,29,04,45,14.20
2008,08,29,04,46,14.20
2008,08,29,04,47,14.20
2008,08,29,04,48,14.20
2008,08,29,04,49,14.20
2008,08,29,04,50,14.20
2008,08,29,04,51,14.20
2008,08,29,04,52,14.20
2008,08,29,04,53,14.20
2008,08,29,04,54,14.20
2008,08,29,04,55,14.10
2008,08,29,04,56,14.10
2008,08,29,04,57,14.10
2008,08,29,04,58,14.10
2008,08,29,04,59,14.10
2008,08,29,05,00,14.10
2008,08,29,05,01,14.10
2008,08,29,05,02,14.10
2008,08,29,05,03,14.10
2008,08,29,05,04,14.10
2008,08,29,05,05,14.10
2008,08,29,05,06,14.10
2008,08,29,05,07,14.10
2008,08,29,05,08,14.10
2008,08,29,05,09,14.10
2008,08,29,05,10,14.10
2008,08,29,05,11,14.10
2008,08,29,05,12,14.10
2008,08,29,05,13,14.00
2008,08,29,05,14,14.00
2008,08,29,05,15,14.00
2008,08,29,05,16,14.00
2008,08,29,05,17,14.00
2008,08,29,05,18,13.90
2008,08,29,05,19,13.90
2008,08,29,05,20,13.90
2008,08,29,05,21,13.90
2008,08,29,05,22,13.90
2008,08,29,05,23,13.90
2008,08,29,05,24,13.90
2008,08,29,05,25,13.90
2008,08,29,05,26,13.90
2008,08,29,05,27,13.90
2008,08,29,05,28,13.90
2008,08,29,05,29,13.90
2008,08,29,05,30,13.90
2008,08,29,05,31,13.90
2008,08,29,05,32,13.90
2008,08,29,05,33,13.90
2008,08,29,05,34,13.90
2008,08,29,05,35,13.80
2008,08,29,05,36,13.80
2008,08,29,05,37,13.80
2008,08,29,05,38,13.80
2008,08,29,05,39,13.80
2008,08,29,05,40,13.80
2008,08,29,05,41,13.80
2008,08,29,05,42,13.80
2008,08,29,05,43,13.80
2008,08,29,05,44,13.80
2008,08,29,05,45,13.80
2008,08,29,05,46,13.80
2008,08,29,05,47,13.80
2008,08,29,05,48,13.70
2008,08,29,05,49,13.70
2008,08,29,05,50,13.70
2008,08,29,05,51,13.70
2008,08,29,05,52,13.70
2008,08,29,05,53,13.70
2008,08,29,05,54,13.70
2008,08,29,05,55,13.70
2008,08,29,05,56,13.70
2008,08,29,05,57,13.70
2008,08,29,05,58,13.70
2008,08,29,05,59,13.80
2008,08,29,06,00,13.80
2008,08,29,06,01,13.80
2008,08,29,06,02,13.80
2008,08,29,06,03,13.80
2008,08,29,06,04,13.80
2008,08,29,06,05,13.80
2008,08,29,06,06,13.80
2008,08,29,06,07,13.80
2008,08,29,06,08,13.80
2008,08,29,06,09,13.80
2008,08,29,06,10,13.80
2008,08,29,06,11,13.80
2008,08,29,06,12,13.80
2008,08,29,06,13,13.80
2008,08,29,06,14,13.80
2008,08,29,06,15,13.80
2008,08,29,06,16,13.80
2008,08,29,06,17,13.70
2008,08,29,06,18,13.70
2008,08,29,06,19,13.70
2008,08,29,06,20,13.70
2008,08,29,06,21,13.70
2008,08,29,06,22,13.70
2008,08,29,06,23,13.70
2008,08,29,06,24,13.80
2008,08,29,06,25,13.80
2008,08,29,06,26,13.80
2008,08,29,06,27,13.80
2008,08,29,06,28,13.80
2008,08,29,06,29,13.80
2008,08,29,06,30,13.80
2008,08,29,06,31,13.80
2008,08,29,06,32,13.80
2008,08,29,06,33,13.80
2008,08,29,06,34,13.80
2008,08,29,06,35,13.80
2008,08,29,06,36,13.80
2008,08,29,06,37,13.80
2008,08,29,06,38,13.80
2008,08,29,06,39,13.80
2008,08,29,06,40,13.80
2008,08,29,06,41,13.80
2008,08,29,06,42,13.80
2008,08,29,06,43,13.80
2008,08,29,06,44,13.80
2008,08,29,06,45,13.80
2008,08,29,06,46,13.80
2008,08,29,06,47,13.80
2008,08,29,06,48,13.80
2008,08,29,06,49,13.80
2008,08,29,06,50,13.90
2008,08,29,06,51,13.90
2008,08,29,06,52,13.90
2008,08,29,06,53,13.90
2008,08,29,06,54,13.90
2008,08,29,06,55,13.90
2008,08,29,06,56,13.90
2008,08,29,06,57,13.90
2008,08,29,06,58,13.90
2008,08,29,06,59,13.90
2008,08,29,07,00,13.90
2008,08,29,07,01,13.90
2008,08,29,07,02,13.90
2008,08,29,07,03,13.90
2008,08,29,07,04,13.90
2008,08,29,07,05,14.00
2008,08,29,07,06,14.00
2008,08,29,07,07,14.00
2008,08,29,07,08,14.00
2008,08,29,07,09,14.10
2008,08,29,07,10,14.10
2008,08,29,07,11,14.10
2008,08,29,07,12,14.10
2008,08,29,07,13,14.10
2008,08,29,07,14,14.10
2008,08,29,07,15,14.10
2008,08,29,07,16,14.10
2008,08,29,07,17,14.10
2008,08,29,07,18,14.10
2008,08,29,07,19,14.10
2008,08,29,07,20,14.10
2008,08,29,07,21,14.10
2008,08,29,07,22,14.10
2008,08,29,07,23,14.10
2008,08,29,07,24,14.10
2008,08,29,07,25,14.10
2008,08,29,07,26,14.10
2008,08,29,07,27,14.10
2008,08,29,07,28,14.10
2008,08,29,07,29,14.10
2008,08,29,07,30,14.10
2008,08,29,07,31,14.10
2008,08,29,07,32,14.10
2008,08,29,07,33,14.10
2008,08,29,07,34,14.10
2008,08,29,07,35,14.10
2008,08,29,07,36,14.10
2008,08,29,07,37,14.10
2008,08,29,07,38,14.10
2008,08,29,07,39,14.20
2008,08,29,07,40,14.20
2008,08,29,07,41,14.20
2008,08,29,07,42,14.20
2008,08,29,07,43,14.20
2008,08,29,07,44,14.20
2008,08,29,07,45,14.20
2008,08,29,07,46,14.20
2008,08,29,07,47,14.20
2008,08,29,07,48,14.30
2008,08,29,07,49,14.30
2008,08,29,07,50,14.30
2008,08,29,07,51,14.30
2008,08,29,07,52,14.40
2008,08,29,07,53,14.40
2008,08,29,07,54,14.40
2008,08,29,07,55,14.40
2008,08,29,07,56,14.50
2008,08,29,07,57,14.50
2008,08,29,07,58,14.50
2008,08,29,07,59,14.60
2008,08,29,08,00,14.60
2008,08,29,08,01,14.60
2008,08,29,08,02,14.60
2008,08,29,08,03,14.70
2008,08,29,08,04,14.70
2008,08,29,08,05,14.70
2008,08,29,08,06,14.70
2008,08,29,08,07,14.70
2008,08,29,08,08,14.80
2008,08,29,08,09,14.80
2008,08,29,08,10,14.80
2008,08,29,08,11,14.80
2008,08,29,08,12,14.90
2008,08,29,08,13,14.90
2008,08,29,08,14,14.90
2008,08,29,08,15,14.90
2008,08,29,08,16,15.00
2008,08,29,08,17,15.00
2008,08,29,08,18,15.00
2008,08,29,08,19,15.00
2008,08,29,08,20,15.00
2008,08,29,08,21,15.00
2008,08,29,08,22,15.00
2008,08,29,08,23,15.00
2008,08,29,08,24,15.00
2008,08,29,08,25,15.00
2008,08,29,08,26,15.00
2008,08,29,08,27,15.00
2008,08,29,08,28,15.00
2008,08,29,08,29,15.20
2008,08,29,08,30,15.20
2008,08,29,08,31,15.30
2008,08,29,08,32,15.30
2008,08,29,08,33,15.30
2008,08,29,08,34,15.30
2008,08,29,08,35,15.40
2008,08,29,08,36,15.40
2008,08,29,08,37,15.40
2008,08,29,08,38,15.50
2008,08,29,08,39,15.60
2008,08,29,08,40,15.70
2008,08,29,08,41,15.80
2008,08,29,08,42,15.90
2008,08,29,08,43,16.10
2008,08,29,08,44,16.20
2008,08,29,08,45,16.20
2008,08,29,08,46,16.30
2008,08,29,08,47,16.40
2008,08,29,08,48,16.50
2008,08,29,08,49,16.70
2008,08,29,08,50,16.80
2008,08,29,08,51,16.90
2008,08,29,08,52,17.00
2008,08,29,08,53,17.10
2008,08,29,08,54,17.20
2008,08,29,08,55,17.30
2008,08,29,08,56,17.40
2008,08,29,08,57,17.40
2008,08,29,08,58,17.50
2008,08,29,08,59,17.60
2008,08,29,09,00,17.60
2008,08,29,09,01,17.60
2008,08,29,09,02,17.70
2008,08,29,09,03,17.70
2008,08,29,09,04,17.70
2008,08,29,09,05,17.70
2008,08,29,09,06,17.80
2008,08,29,09,07,17.80
2008,08,29,09,08,17.80
2008,08,29,09,09,17.80
2008,08,29,09,10,17.80
2008,08,29,09,11,17.80
2008,08,29,09,12,17.90
2008,08,29,09,13,17.90
2008,08,29,09,14,17.90
2008,08,29,09,15,17.90
2008,08,29,09,16,18.00
2008,08,29,09,17,18.00
2008,08,29,09,18,18.00
2008,08,29,09,19,18.00
2008,08,29,09,20,18.10
2008,08,29,09,21,18.10
2008,08,29,09,22,18.10
2008,08,29,09,23,18.10
2008,08,29,09,24,18.10
2008,08,29,09,25,18.10
2008,08,29,09,26,18.10
2008,08,29,09,27,18.20
2008,08,29,09,28,18.20
2008,08,29,09,29,18.20
2008,08,29,09,30,18.30
2008,08,29,09,31,18.30
2008,08,29,09,32,18.30
2008,08,29,09,33,18.30
2008,08,29,09,34,18.30
2008,08,29,09,35,18.30
2008,08,29,09,36,18.30
2008,08,29,09,37,18.30
2008,08,29,09,38,18.40
2008,08,29,09,39,18.40
2008,08,29,09,40,18.40
2008,08,29,09,41,18.40
2008,08,29,09,42,18.50
2008,08,29,09,43,18.50
2008,08,29,09,44,18.60
2008,08,29,09,45,18.60
2008,08,29,09,46,18.60
2008,08,29,09,47,18.60
2008,08,29,09,48,18.60
2008,08,29,09,49,18.70
2008,08,29,09,50,18.70
2008,08,29,09,51,18.80
2008,08,29,09,52,18.80
2008,08,29,09,53,18.90
2008,08,29,09,54,18.90
2008,08,29,09,55,18.90
2008,08,29,09,56,18.90
2008,08,29,09,57,18.90
2008,08,29,09,58,19.00
2008,08,29,09,59,19.00
2008,08,29,10,00,19.00
2008,08,29,10,01,19.00
2008,08,29,10,02,19.10
2008,08,29,10,03,19.10
2008,08,29,10,04,19.10
2008,08,29,10,05,19.10
2008,08,29,10,06,19.10
2008,08,29,10,07,19.10
2008,08,29,10,08,19.10
2008,08,29,10,09,19.10
2008,08,29,10,10,19.10
2008,08,29,10,11,19.10
2008,08,29,10,12,19.10
2008,08,29,10,13,19.20
2008,08,29,10,14,19.20
2008,08,29,10,15,19.20
2008,08,29,10,16,19.30
2008,08,29,10,17,19.30
2008,08,29,10,18,19.30
2008,08,29,10,19,19.30
2008,08,29,10,20,19.30
2008,08,29,10,21,19.30
2008,08,29,10,22,19.30
2008,08,29,10,23,19.30
2008,08,29,10,24,19.30
2008,08,29,10,25,19.30
2008,08,29,10,26,19.30
2008,08,29,10,27,19.30
2008,08,29,10,28,19.40
2008,08,29,10,29,19.40
2008,08,29,10,30,19.40
2008,08,29,10,31,19.40
2008,08,29,10,32,19.50
2008,08,29,10,33,19.50
2008,08,29,10,34,19.50
2008,08,29,10,35,19.60
2008,08,29,10,36,19.60
2008,08,29,10,37,19.60
2008,08,29,10,38,19.60
2008,08,29,10,39,19.60
2008,08,29,10,40,19.60
2008,08,29,10,41,19.60
2008,08,29,10,42,19.50
2008,08,29,10,43,19.50
2008,08,29,10,44,19.50
2008,08,29,10,45,19.50
2008,08,29,10,46,19.50
2008,08,29,10,47,19.60
2008,08,29,10,48,19.70
2008,08,29,10,49,19.70
2008,08,29,10,50,19.80
2008,08,29,10,51,19.80
2008,08,29,10,52,19.80
2008,08,29,10,53,19.80
2008,08,29,10,54,19.80
2008,08,29,10,55,19.80
2008,08,29,10,56,19.80
2008,08,29,10,57,19.80
2008,08,29,10,58,19.90
2008,08,29,10,59,19.90
2008,08,29,11,00,19.90
2008,08,29,11,01,19.90
2008,08,29,11,02,19.90
2008,08,29,11,03,19.90
2008,08,29,11,04,20.00
2008,08,29,11,05,20.10
2008,08,29,11,06,20.10
2008,08,29,11,07,20.10
2008,08,29,11,08,20.10
2008,08,29,11,09,20.10
2008,08,29,11,10,20.10
2008,08,29,11,11,20.10
2008,08,29,11,12,20.10
2008,08,29,11,13,20.10
2008,08,29,11,14,20.10
2008,08,29,11,15,20.10
2008,08,29,11,16,20.10
2008,08,29,11,17,20.10
2008,08,29,11,18,20.10
2008,08,29,11,19,20.10
2008,08,29,11,20,20.10
2008,08,29,11,21,20.10
2008,08,29,11,22,20.10
2008,08,29,11,23,20.10
2008,08,29,11,57,19.10
2008,08,29,11,58,19.10
2008,08,29,11,59,19.20
2008,08,29,12,00,19.20
2008,08,29,12,01,19.20
2008,08,29,12,02,19.20
2008,08,29,12,03,19.20
2008,08,29,12,04,19.30
2008,08,29,12,05,19.30
2008,08,29,12,06,19.30
2008,08,29,12,07,19.30
2008,08,29,12,08,19.30
2008,08,29,12,09,19.30
2008,08,29,12,10,19.30
2008,08,29,12,11,19.30
2008,08,29,12,12,19.30
2008,08,29,12,13,19.30
2008,08,29,12,27,19.10
2008,08,29,12,28,19.10
2008,08,29,12,29,19.10
2008,08,29,12,30,19.40
2008,08,29,12,31,19.40
2008,08,29,12,32,19.40
2008,08,29,12,33,19.40
2008,08,29,12,34,19.40
2008,08,29,12,35,19.40
2008,08,29,12,36,19.30
2008,08,29,12,37,19.20
2008,08,29,12,38,19.20
2008,08,29,12,39,19.20
2008,08,29,12,40,19.20
2008,08,29,12,41,19.20
2008,08,29,12,42,19.20
2008,08,29,12,43,19.20
2008,08,29,12,44,19.20
2008,08,29,12,45,19.10
2008,08,29,12,46,19.10
2008,08,29,12,47,19.10
2008,08,29,12,48,19.10
2008,08,29,12,49,19.10
2008,08,29,12,50,19.10
2008,08,29,12,51,19.10
2008,08,29,12,52,19.10
2008,08,29,12,53,19.10
2008,08,29,12,54,19.10
2008,08,29,12,55,19.10
2008,08,29,12,56,19.10
2008,08,29,12,57,19.10
2008,08,29,12,58,19.10
2008,08,29,12,59,19.10
2008,08,29,13,00,19.10
2008,08,29,13,01,19.10
2008,08,29,13,02,19.10
2008,08,29,13,03,19.10
2008,08,29,13,04,19.00
2008,08,29,13,05,19.00
2008,08,29,13,06,19.00
2008,08,29,13,07,19.00
2008,08,29,13,08,19.10
2008,08,29,13,09,19.10
2008,08,29,13,10,19.10
2008,08,29,13,11,19.10
2008,08,29,13,12,19.10
2008,08,29,13,13,19.10
2008,08,29,13,14,19.10
2008,08,29,13,15,19.10
2008,08,29,13,16,19.20
2008,08,29,13,17,19.20
2008,08,29,13,18,19.30
2008,08,29,13,19,19.30
2008,08,29,13,20,19.30
2008,08,29,13,21,19.40
2008,08,29,13,22,19.50
2008,08,29,13,23,19.60
2008,08,29,13,24,19.60
2008,08,29,13,25,19.70
2008,08,29,13,26,19.70
2008,08,29,13,27,19.70
2008,08,29,13,28,19.80
2008,08,29,13,29,19.80
2008,08,29,13,30,19.70
2008,08,29,13,31,19.70
2008,08,29,13,32,19.70
2008,08,29,13,33,19.70
2008,08,29,13,34,19.70
2008,08,29,13,35,19.70
2008,08,29,13,36,19.80
2008,08,29,13,37,19.80
2008,08,29,13,38,19.80
2008,08,29,13,39,19.80
2008,08,29,13,40,19.70
2008,08,29,13,41,19.60
2008,08,29,13,42,19.50
2008,08,29,13,43,19.40
2008,08,29,13,44,19.30
2008,08,29,13,45,19.20
2008,08,29,13,46,19.20
2008,08,29,13,47,19.20
2008,08,29,13,48,19.20
2008,08,29,13,49,19.20
2008,08,29,13,50,19.20
2008,08,29,13,51,19.20
2008,08,29,13,52,19.20
2008,08,29,13,53,19.20
2008,08,29,13,54,19.20
2008,08,29,13,55,19.20
2008,08,29,13,56,19.20
2008,08,29,13,57,19.20
2008,08,29,13,58,19.20
2008,08,29,13,59,19.20
2008,08,29,14,00,19.10
2008,08,29,14,01,18.90
2008,08,29,14,02,18.80
2008,08,29,14,03,18.70
2008,08,29,14,04,18.60
2008,08,29,14,05,18.60
2008,08,29,14,06,18.60
2008,08,29,14,07,18.60
2008,08,29,14,08,18.70
2008,08,29,14,09,18.70
2008,08,29,14,10,18.70
2008,08,29,14,11,18.60
2008,08,29,14,12,18.60
2008,08,29,14,13,18.50
2008,08,29,14,14,18.40
2008,08,29,14,15,18.40
2008,08,29,14,16,18.40
2008,08,29,14,17,18.40
2008,08,29,14,18,18.30
2008,08,29,14,19,18.40
2008,08,29,14,20,18.40
2008,08,29,14,21,18.40
2008,08,29,14,22,18.40
2008,08,29,14,23,18.40
2008,08,29,14,24,18.30
2008,08,29,14,25,18.30
2008,08,29,14,26,18.20
2008,08,29,14,27,18.30
2008,08,29,14,28,18.30
2008,08,29,14,29,18.30
2008,08,29,14,30,18.30
2008,08,29,14,31,18.30
2008,08,29,14,32,18.30
2008,08,29,14,33,18.40
2008,08,29,14,34,18.40
2008,08,29,14,35,18.40
2008,08,29,14,36,18.40
2008,08,29,14,37,18.30
2008,08,29,14,38,18.30
2008,08,29,14,39,18.30
2008,08,29,14,40,18.30
2008,08,29,14,41,18.30
2008,08,29,14,42,18.30
2008,08,29,14,43,18.30
2008,08,29,14,44,18.30
2008,08,29,14,45,18.30
2008,08,29,14,46,18.30
2008,08,29,14,47,18.40
2008,08,29,14,48,18.40
2008,08,29,14,49,18.50
2008,08,29,14,50,18.50
2008,08,29,14,51,18.50
2008,08,29,14,52,18.40
2008,08,29,14,53,18.30
2008,08,29,14,54,18.40
2008,08,29,14,55,18.40
2008,08,29,14,56,18.60
2008,08,29,14,57,18.60
2008,08,29,14,58,18.70
2008,08,29,14,59,18.80
2008,08,29,15,00,18.80
2008,08,29,15,01,18.80
2008,08,29,15,02,18.80
2008,08,29,15,03,18.80
2008,08,29,15,04,18.80
2008,08,29,15,05,18.70
2008,08,29,15,06,18.80
2008,08,29,15,07,18.80
2008,08,29,15,08,18.80
2008,08,29,15,09,18.70
2008,08,29,15,10,18.80
2008,08,29,15,11,18.70
2008,08,29,15,12,18.70
2008,08,29,15,13,18.70
2008,08,29,15,14,18.80
2008,08,29,15,15,18.60
2008,08,29,15,16,18.50
2008,08,29,15,17,18.40
2008,08,29,15,18,18.30
2008,08,29,15,19,18.30
2008,08,29,15,20,18.30
2008,08,29,15,21,18.40
2008,08,29,15,22,18.40
2008,08,29,15,23,18.40
2008,08,29,15,24,18.50
2008,08,29,15,25,18.60
2008,08,29,15,26,18.60
2008,08,29,15,27,18.60
2008,08,29,15,28,18.60
2008,08,29,15,29,18.60
2008,08,29,15,30,18.60
2008,08,29,15,31,18.70
2008,08,29,15,32,18.70
2008,08,29,15,33,18.70
2008,08,29,15,34,18.80
2008,08,29,15,35,18.90
2008,08,29,15,36,18.90
2008,08,29,15,37,19.00
2008,08,29,15,38,19.10
2008,08,29,15,39,19.00
2008,08,29,15,40,19.00
2008,08,29,15,41,18.90
2008,08,29,15,42,18.80
2008,08,29,15,43,18.80
2008,08,29,15,44,18.80
2008,08,29,15,45,18.80
2008,08,29,15,46,18.90
2008,08,29,15,47,18.90
2008,08,29,15,48,18.90
2008,08,29,15,49,18.90
2008,08,29,15,50,19.00
2008,08,29,15,51,19.00
2008,08,29,15,52,19.00
2008,08,29,15,53,19.00
2008,08,29,15,54,19.00
2008,08,29,15,55,18.90
2008,08,29,15,56,18.90
2008,08,29,15,57,18.80
2008,08,29,15,58,18.80
2008,08,29,15,59,18.70
2008,08,29,16,00,18.70
2008,08,29,16,01,18.70
2008,08,29,16,02,18.70
2008,08,29,16,03,18.60
2008,08,29,16,04,18.60
2008,08,29,16,05,18.60
2008,08,29,16,06,18.60
2008,08,29,16,07,18.60
2008,08,29,16,08,18.60
2008,08,29,16,09,18.60
2008,08,29,16,10,18.60
2008,08,29,16,11,18.60
2008,08,29,16,12,18.50
2008,08,29,16,13,18.60
2008,08,29,16,14,18.60
2008,08,29,16,15,18.50
2008,08,29,16,16,18.40
2008,08,29,16,17,18.50
2008,08,29,16,18,18.50
2008,08,29,16,19,18.50
2008,08,29,16,20,18.60
2008,08,29,16,21,18.60
2008,08,29,16,22,18.60
2008,08,29,16,23,18.60
2008,08,29,16,24,18.60
2008,08,29,16,25,18.60
2008,08,29,16,26,18.50
2008,08,29,16,27,18.50
2008,08,29,16,28,18.50
2008,08,29,16,29,18.50
2008,08,29,16,30,18.50
2008,08,29,16,31,18.50
2008,08,29,16,32,18.50
2008,08,29,16,33,18.60
2008,08,29,16,34,18.60
2008,08,29,16,35,18.60
2008,08,29,16,36,18.60
2008,08,29,16,37,18.60
2008,08,29,16,38,18.60
2008,08,29,16,39,18.60
2008,08,29,16,40,18.60
2008,08,29,16,41,18.70
2008,08,29,16,42,18.70
2008,08,29,16,43,18.70
2008,08,29,16,44,18.70
2008,08,29,16,45,18.70
2008,08,29,16,46,18.70
2008,08,29,16,47,18.70
2008,08,29,16,48,18.70
2008,08,29,16,49,18.70
2008,08,29,16,50,18.70
2008,08,29,16,51,18.70
2008,08,29,16,52,18.70
2008,08,29,16,53,18.80
2008,08,29,16,54,18.80
2008,08,29,16,55,18.80
2008,08,29,16,56,18.90
2008,08,29,16,57,18.80
2008,08,29,16,58,18.80
2008,08,29,16,59,18.80
2008,08,29,17,00,18.70
2008,08,29,17,01,18.70
2008,08,29,17,02,18.70
2008,08,29,17,03,18.70
2008,08,29,17,04,18.60
2008,08,29,17,05,18.60
2008,08,29,17,06,18.60
2008,08,29,17,07,18.50
2008,08,29,17,08,18.50
2008,08,29,17,09,18.50
2008,08,29,17,10,18.50
2008,08,29,17,11,18.50
2008,08,29,17,12,18.60
2008,08,29,17,13,18.60
2008,08,29,17,14,18.70
2008,08,29,17,15,18.70
2008,08,29,17,16,18.60
2008,08,29,17,17,18.60
2008,08,29,17,18,18.60
2008,08,29,17,19,18.60
2008,08,29,17,20,18.70
2008,08,29,17,21,18.70
2008,08,29,17,22,18.70
2008,08,29,17,23,18.70
2008,08,29,17,24,18.70
2008,08,29,17,25,18.70
2008,08,29,17,26,18.80
2008,08,29,17,27,18.70
2008,08,29,17,28,18.70
2008,08,29,17,29,18.70
2008,08,29,17,30,18.70
2008,08,29,17,31,18.70
2008,08,29,17,32,18.70
2008,08,29,17,33,18.70
2008,08,29,17,34,18.60
2008,08,29,17,35,18.60
2008,08,29,17,36,18.60
2008,08,29,17,37,18.50
2008,08,29,17,38,18.50
2008,08,29,17,39,18.40
2008,08,29,17,40,18.40
2008,08,29,17,41,18.40
2008,08,29,17,42,18.50
2008,08,29,17,43,18.50
2008,08,29,17,44,18.40
2008,08,29,17,45,18.40
2008,08,29,17,46,18.40
2008,08,29,17,47,18.40
2008,08,29,17,48,18.40
2008,08,29,17,49,18.40
2008,08,29,17,50,18.30
2008,08,29,17,51,18.30
2008,08,29,17,52,18.20
2008,08,29,17,53,18.20
2008,08,29,17,54,18.20
2008,08,29,17,55,18.20
2008,08,29,17,56,18.10
2008,08,29,17,57,18.20
2008,08,29,17,58,18.10
2008,08,29,17,59,18.10
2008,08,29,18,00,18.10
2008,08,29,18,01,18.10
2008,08,29,18,02,18.00
2008,08,29,18,03,18.00
2008,08,29,18,04,18.00
2008,08,29,18,05,18.00